When you browse on this site, cookies collect data to enhance your experience and personalize the content and advertising you see.
Visit our Privacy Policy to learn more. By continuing to use the site, you agree to this use of cookies and data.
  • In Czech Republic
  • List of Countries
  • For 7 days
  • Water Temperature
  • Satellite Maps
  • Weather Map
  • Weather Widgets
  • user-avatar
    Login

    Hourly Weather Dawson

    Today, 20 June, Thursday

    Time Temperature Precipitation Wind Pressure Humidity
    00:00 +10°C° 0 mm 1 mps 694 mmHg 54%
    01:00 +9°C° 0 mm 1 mps 694 mmHg 56%
    02:00 +9°C° 0 mm 1 mps 694 mmHg 57%
    03:00 +8°C° 0 mm 0 mps 694 mmHg 59%
    04:00 +10°C° 0 mm 0 mps 695 mmHg 54%
    05:00 +12°C° 0 mm 0 mps 695 mmHg 48%
    06:00 +14°C° 0 mm 0 mps 696 mmHg 42%
    07:00 +16°C° 0 mm 0 mps 696 mmHg 38%
    08:00 +18°C° 0 mm 0 mps 696 mmHg 33%
    09:00 +23°C° 0 mm 1 mps 696 mmHg 28%
    10:00 +24°C° 0 mm 1 mps 697 mmHg 25%
    11:00 +25°C° 0 mm 1 mps 697 mmHg 23%
    12:00 +26°C° 0 mm 1 mps 697 mmHg 21%
    13:00 +26°C° 0 mm 1 mps 696 mmHg 21%
    14:00 +26°C° 0 mm 1 mps 696 mmHg 21%
    15:00 +26°C° 0 mm 1 mps 696 mmHg 20%
    16:00 +26°C° 0 mm 1 mps 695 mmHg 22%
    17:00 +25°C° 0 mm 2 mps 695 mmHg 23%
    18:00 +24°C° 0 mm 2 mps 695 mmHg 24%
    19:00 +22°C° 0 mm 1 mps 694 mmHg 31%
    20:00 +20°C° 0 mm 1 mps 694 mmHg 38%
    21:00 +18°C° 0 mm 1 mps 694 mmHg 45%
    22:00 +16°C° 0 mm 1 mps 693 mmHg 49%
    23:00 +14°C° 0 mm 1 mps 693 mmHg 53%

    Tomorrow, 21 June, Friday

    Time Temperature Precipitation Wind Pressure Humidity
    00:00 +13°C° 0 mm 1 mps 693 mmHg 56%
    01:00 +12°C° 0 mm 1 mps 693 mmHg 57%
    02:00 +12°C° 0 mm 1 mps 693 mmHg 59%
    03:00 +12°C° 0 mm 1 mps 693 mmHg 60%
    04:00 +13°C° 0 mm 0 mps 693 mmHg 56%
    05:00 +14°C° 0 mm 0 mps 693 mmHg 52%
    06:00 +16°C° 0 mm 0 mps 693 mmHg 48%
    07:00 +18°C° 0 mm 0 mps 693 mmHg 42%
    08:00 +20°C° 0 mm 0 mps 693 mmHg 37%
    09:00 +22°C° 0 mm 0 mps 693 mmHg 31%
    10:00 +23°C° 0 mm 0 mps 693 mmHg 29%
    11:00 +26°C° 0 mm 1 mps 692 mmHg 26%
    12:00 +26°C° 0 mm 1 mps 692 mmHg 24%
    13:00 +26°C° 0 mm 1 mps 692 mmHg 23%
    14:00 +26°C° 0 mm 1 mps 691 mmHg 23%
    15:00 +26°C° 0 mm 1 mps 691 mmHg 23%
    16:00 +25°C° 0 mm 1 mps 690 mmHg 23%
    17:00 +25°C° 0 mm 1 mps 690 mmHg 24%
    18:00 +24°C° 0 mm 1 mps 689 mmHg 25%
    19:00 +23°C° 0 mm 1 mps 689 mmHg 30%
    20:00 +21°C° 0 mm 1 mps 688 mmHg 35%
    21:00 +19°C° 0 mm 1 mps 687 mmHg 40%
    22:00 +16°C° 0 mm 1 mps 687 mmHg 44%
    23:00 +14°C° 0 mm 1 mps 687 mmHg 48%

    Day after tomorrow, 22 June, Saturday

    Time Temperature Precipitation Wind Pressure Humidity
    00:00 +12°C° 0 mm 1 mps 686 mmHg 51%
    01:00 +12°C° 0 mm 1 mps 686 mmHg 53%
    02:00 +11°C° 0 mm 1 mps 686 mmHg 55%
    03:00 +11°C° 0 mm 1 mps 686 mmHg 57%
    04:00 +13°C° 0 mm 1 mps 686 mmHg 52%
    05:00 +14°C° 0 mm 1 mps 686 mmHg 47%
    06:00 +16°C° 0 mm 1 mps 686 mmHg 42%
    07:00 +19°C° 0 mm 1 mps 687 mmHg 36%
    08:00 +21°C° 0 mm 1 mps 687 mmHg 30%
    09:00 +22°C° 0 mm 1 mps 687 mmHg 24%
    10:00 +23°C° 0 mm 2 mps 687 mmHg 23%
    11:00 +24°C° 0 mm 2 mps 687 mmHg 23%
    12:00 +25°C° 0 mm 3 mps 687 mmHg 22%
    13:00 +25°C° 0 mm 3 mps 687 mmHg 23%
    14:00 +25°C° 0 mm 4 mps 687 mmHg 23%
    15:00 +25°C° 0 mm 4 mps 687 mmHg 24%
    16:00 +23°C° 0 mm 4 mps 687 mmHg 25%
    17:00 +23°C° 0 mm 4 mps 686 mmHg 25%
    18:00 +22°C° 0 mm 5 mps 686 mmHg 26%
    19:00 +20°C° 0 mm 4 mps 686 mmHg 29%
    20:00 +19°C° 0 mm 3 mps 686 mmHg 33%
    21:00 +17°C° 0 mm 3 mps 686 mmHg 36%
    22:00 +15°C° 0 mm 2 mps 686 mmHg 40%
    23:00 +14°C° 0 mm 2 mps 687 mmHg 45%

    23 June, Sunday

    Time Temperature Precipitation Wind Pressure Humidity
    00:00 +12°C° 0 mm 2 mps 687 mmHg 49%
    01:00 +10°C° 0 mm 2 mps 687 mmHg 51%
    02:00 +10°C° 0 mm 2 mps 687 mmHg 52%
    03:00 +10°C° 0 mm 1 mps 687 mmHg 53%
    04:00 +11°C° 0 mm 1 mps 688 mmHg 49%
    05:00 +13°C° 0 mm 1 mps 688 mmHg 45%
    06:00 +14°C° 0 mm 1 mps 689 mmHg 41%
    07:00 +16°C° 0 mm 1 mps 689 mmHg 37%
    08:00 +18°C° 0 mm 2 mps 689 mmHg 34%
    09:00 +19°C° 0 mm 2 mps 690 mmHg 30%
    10:00 +20°C° 0 mm 2 mps 690 mmHg 30%
    11:00 +21°C° 0 mm 2 mps 690 mmHg 29%
    12:00 +22°C° 0 mm 3 mps 690 mmHg 29%
    13:00 +22°C° 0 mm 3 mps 690 mmHg 30%
    14:00 +22°C° 0 mm 3 mps 690 mmHg 32%
    15:00 +22°C° 0 mm 3 mps 690 mmHg 33%
    16:00 +21°C° 0 mm 3 mps 689 mmHg 34%
    17:00 +21°C° 0 mm 3 mps 689 mmHg 34%
    18:00 +21°C° 0 mm 3 mps 689 mmHg 35%
    19:00 +19°C° 0 mm 2 mps 689 mmHg 40%
    20:00 +18°C° 0 mm 2 mps 689 mmHg 46%
    21:00 +16°C° 0 mm 1 mps 689 mmHg 51%
    22:00 +14°C° 0 mm 1 mps 689 mmHg 56%
    23:00 +12°C° 0 mm 1 mps 689 mmHg 60%

    24 June, Monday

    Time Temperature Precipitation Wind Pressure Humidity
    00:00 +11°C° 0 mm 1 mps 688 mmHg 65%
    01:00 +10°C° 0 mm 1 mps 689 mmHg 67%
    02:00 +9°C° 0 mm 1 mps 689 mmHg 69%
    03:00 +9°C° 0 mm 1 mps 689 mmHg 72%
    04:00 +11°C° 0 mm 1 mps 689 mmHg 64%
    05:00 +12°C° 0 mm 0 mps 689 mmHg 57%
    06:00 +14°C° 0 mm 0 mps 689 mmHg 50%
    07:00 +16°C° 0 mm 0 mps 689 mmHg 44%
    08:00 +20°C° 0 mm 1 mps 690 mmHg 39%
    09:00 +22°C° 0 mm 1 mps 690 mmHg 34%
    10:00 +23°C° 0 mm 1 mps 690 mmHg 31%
    11:00 +24°C° 0 mm 1 mps 690 mmHg 29%
    12:00 +25°C° 0 mm 1 mps 690 mmHg 26%
    13:00 +24°C° 0 mm 2 mps 689 mmHg 32%
    14:00 +21°C° 0 mm 4 mps 688 mmHg 38%
    15:00 +20°C° 0 mm 5 mps 688 mmHg 44%
    16:00 +19°C° 0 mm 4 mps 688 mmHg 49%
    17:00 +18°C° 0 mm 3 mps 687 mmHg 54%
    18:00 +17°C° 0 mm 2 mps 687 mmHg 58%
    19:00 +16°C° 0 mm 2 mps 687 mmHg 64%
    20:00 +15°C° 0 mm 2 mps 687 mmHg 69%
    21:00 +14°C° 0 mm 1 mps 687 mmHg 75%
    22:00 +13°C° 0 mm 1 mps 687 mmHg 78%
    23:00 +12°C° 0 mm 1 mps 687 mmHg 82%

    25 June, Tuesday

    Time Temperature Precipitation Wind Pressure Humidity
    00:00 +11°C° 0 mm 1 mps 686 mmHg 86%
    01:00 +11°C° 0 mm 1 mps 687 mmHg 86%
    02:00 +11°C° 0 mm 1 mps 687 mmHg 86%
    03:00 +11°C° 0 mm 1 mps 687 mmHg 86%
    04:00 +12°C° 0 mm 1 mps 687 mmHg 81%
    05:00 +13°C° 0 mm 1 mps 687 mmHg 75%
    06:00 +14°C° 0 mm 1 mps 687 mmHg 70%
    07:00 +15°C° 0.1 mm 2 mps 688 mmHg 62%
    08:00 +16°C° 0.1 mm 3 mps 688 mmHg 54%
    09:00 +16°C° 0.1 mm 3 mps 688 mmHg 46%
    10:00 +17°C° 0.1 mm 4 mps 688 mmHg 42%
    11:00 +18°C° 0.1 mm 4 mps 688 mmHg 39%
    12:00 +19°C° 0.1 mm 4 mps 688 mmHg 35%
    13:00 +19°C° 0 mm 5 mps 688 mmHg 36%
    14:00 +19°C° 0 mm 5 mps 688 mmHg 36%
    15:00 +17°C° 0 mm 5 mps 688 mmHg 37%
    16:00 +18°C° 0 mm 4 mps 688 mmHg 40%
    17:00 +17°C° 0 mm 4 mps 688 mmHg 42%
    18:00 +17°C° 0 mm 3 mps 688 mmHg 45%
    19:00 +14°C° 0.1 mm 3 mps 688 mmHg 52%
    20:00 +14°C° 0.1 mm 2 mps 689 mmHg 59%
    21:00 +12°C° 0.1 mm 2 mps 689 mmHg 66%
    22:00 +10°C° 0 mm 1 mps 689 mmHg 71%
    23:00 +9°C° 0 mm 1 mps 689 mmHg 75%
    Show more